TimeCDT,TemperatureF,Dew PointF,Humidity,Sea Level PressureIn,VisibilityMPH,Wind Direction,Wind SpeedMPH,Gust SpeedMPH,PrecipitationIn,Events,Conditions,WindDirDegrees,DateUTC
12:10 AM,37.4,33.8,87,29.94,10.0,NW,11.5,-,0.00,Rain,Light Rain,310,2013-05-04 05:10:00
12:53 AM,37.0,33.1,86,29.94,10.0,WNW,9.2,-,0.00,Rain,Light Rain,300,2013-05-04 05:53:00
1:28 AM,35.6,33.8,93,29.92,10.0,NW,8.1,-,0.01,Rain,Light Rain,310,2013-05-04 06:28:00
1:46 AM,35.6,33.8,93,29.91,10.0,WNW,6.9,-,0.01,Rain,Light Rain,300,2013-05-04 06:46:00
1:53 AM,35.1,34.0,96,29.92,7.0,WNW,8.1,-,0.02,Rain,Light Rain,300,2013-05-04 06:53:00
2:00 AM,35.6,33.8,93,29.90,6.0,WNW,8.1,-,0.00,Rain,Light Rain,300,2013-05-04 07:00:00
2:53 AM,36.0,34.0,93,29.89,7.0,West,10.4,-,0.02,,Overcast,280,2013-05-04 07:53:00
3:02 AM,35.6,33.8,93,29.88,10.0,West,11.5,-,0.00,Rain,Light Rain,280,2013-05-04 08:02:00
3:53 AM,36.0,34.0,93,29.88,8.0,West,6.9,-,0.01,Rain,Light Rain,280,2013-05-04 08:53:00
4:53 AM,35.1,34.0,96,29.87,8.0,West,8.1,-,0.02,Rain,Light Rain,280,2013-05-04 09:53:00
5:53 AM,34.0,33.1,96,29.87,4.0,WSW,6.9,-,0.02,Snow,Light Snow,250,2013-05-04 10:53:00
6:10 AM,33.8,33.8,100,29.86,6.0,West,6.9,-,0.00,Snow,Light Snow,260,2013-05-04 11:10:00
6:42 AM,33.8,33.8,100,29.85,6.0,WSW,4.6,-,0.01,Rain,Light Rain,250,2013-05-04 11:42:00
6:53 AM,34.0,34.0,100,29.86,5.0,WSW,5.8,-,0.02,Rain,Light Rain,240,2013-05-04 11:53:00
7:53 AM,35.1,34.0,96,29.86,7.0,West,9.2,-,0.04,Rain,Light Rain,280,2013-05-04 12:53:00
8:53 AM,36.0,35.1,97,29.86,9.0,West,8.1,-,0.02,Rain,Light Rain,280,2013-05-04 13:53:00
9:35 AM,37.4,35.6,93,29.84,10.0,NW,8.1,-,0.00,,Overcast,310,2013-05-04 14:35:00
9:53 AM,39.0,35.1,86,29.86,10.0,NNW,8.1,-,0.00,,Overcast,330,2013-05-04 14:53:00
10:13 AM,39.2,35.6,87,29.85,10.0,NNW,6.9,-,N/A,,Overcast,340,2013-05-04 15:13:00
10:25 AM,37.4,33.8,87,29.85,10.0,NNW,8.1,-,N/A,,Overcast,330,2013-05-04 15:25:00
10:53 AM,39.0,34.0,82,29.88,10.0,NW,6.9,-,N/A,,Overcast,320,2013-05-04 15:53:00
11:53 AM,39.0,35.1,86,29.89,10.0,NW,10.4,16.1,0.00,,Overcast,320,2013-05-04 16:53:00
12:02 PM,37.4,35.6,93,29.88,4.0,NNW,5.8,16.1,0.01,Rain,Light Rain,330,2013-05-04 17:02:00
12:11 PM,39.2,35.6,87,29.88,10.0,North,6.9,-,0.01,,Overcast,350,2013-05-04 17:11:00
12:20 PM,39.2,35.6,87,29.88,10.0,NNW,8.1,-,0.01,,Overcast,330,2013-05-04 17:20:00
12:29 PM,39.2,35.6,87,29.88,8.0,NW,5.8,-,0.01,Rain,Light Rain,320,2013-05-04 17:29:00
12:39 PM,39.2,35.6,87,29.88,10.0,NW,6.9,-,0.01,,Overcast,320,2013-05-04 17:39:00
12:53 PM,41.0,35.1,79,29.90,10.0,NNW,6.9,-,0.01,,Overcast,330,2013-05-04 17:53:00
1:05 PM,39.2,35.6,87,29.88,10.0,WNW,9.2,-,N/A,,Overcast,290,2013-05-04 18:05:00
1:21 PM,41.0,35.6,81,29.89,10.0,NNW,8.1,-,N/A,,Overcast,330,2013-05-04 18:21:00
1:53 PM,41.0,35.1,79,29.91,10.0,NNW,10.4,-,N/A,,Overcast,340,2013-05-04 18:53:00
2:19 PM,41.0,35.6,81,29.90,10.0,North,10.4,-,N/A,,Overcast,360,2013-05-04 19:19:00
2:53 PM,43.0,36.0,76,29.91,10.0,NNW,5.8,-,N/A,,Overcast,340,2013-05-04 19:53:00
3:05 PM,42.8,35.6,76,29.90,10.0,NW,6.9,-,N/A,,Overcast,310,2013-05-04 20:05:00
3:51 PM,42.8,35.6,76,29.91,10.0,North,12.7,-,0.00,,Overcast,360,2013-05-04 20:51:00
3:53 PM,42.1,36.0,79,29.92,10.0,North,10.4,-,0.00,,Overcast,360,2013-05-04 20:53:00
4:44 PM,42.8,37.4,81,29.91,10.0,North,11.5,-,0.00,,Overcast,360,2013-05-04 21:44:00
4:53 PM,44.1,37.0,76,29.93,10.0,North,9.2,-,0.00,,Overcast,10,2013-05-04 21:53:00
5:06 PM,42.8,35.6,76,29.91,10.0,North,10.4,-,N/A,,Overcast,10,2013-05-04 22:06:00
5:53 PM,43.0,37.0,80,29.95,10.0,North,5.8,-,N/A,,Overcast,10,2013-05-04 22:53:00
6:34 PM,44.6,35.6,71,29.93,10.0,North,10.4,-,N/A,,Overcast,360,2013-05-04 23:34:00
6:53 PM,43.0,36.0,76,29.96,10.0,NNE,10.4,-,N/A,,Overcast,20,2013-05-04 23:53:00
7:16 PM,42.8,35.6,76,29.94,10.0,NNE,8.1,-,N/A,,Overcast,20,2013-05-05 00:16:00
7:41 PM,42.8,35.6,76,29.95,10.0,NNE,9.2,-,N/A,,Overcast,20,2013-05-05 00:41:00
7:53 PM,42.1,36.0,79,29.96,10.0,North,8.1,-,N/A,,Overcast,10,2013-05-05 00:53:00
8:53 PM,39.9,36.0,86,29.99,10.0,NNW,5.8,-,N/A,,Overcast,340,2013-05-05 01:53:00
9:53 PM,39.0,36.0,89,30.00,10.0,NNW,4.6,-,N/A,,Mostly Cloudy,330,2013-05-05 02:53:00
10:27 PM,37.4,35.6,93,29.98,10.0,NW,4.6,-,N/A,,Mostly Cloudy,320,2013-05-05 03:27:00
10:53 PM,37.9,36.0,93,30.02,10.0,NNW,4.6,-,N/A,,Mostly Cloudy,340,2013-05-05 03:53:00
11:53 PM,37.0,35.1,93,30.02,10.0,NNW,5.8,-,N/A,,Scattered Clouds,330,2013-05-05 04:53:00